QPF
0.00 0.00 0.00 0.00 0.01 0.02 0.03 0.02 0.03 0.04 0.04 0.05 0.06 0.07 0.07 0.10 0.12 0.13 0.15 0.17 0.19 0.21 0.23 0.19 0.23 0.24 0.22 0.25 0.28 0.25 0.20 0.17 0.15 0.07 0.03 0.01 0.00 0.00 0.00 0.00 0.00 0.00 0.00
0.01 0.01 0.01 0.01 0.02 0.04 0.05 0.05 0.06 0.09 0.11 0.13 0.17 0.19 0.23 0.24 0.24 0.24 0.26 0.26 0.24 0.23 0.23 0.25 0.25 0.23 0.23 0.23 0.24 0.22 0.18 0.13 0.11 0.09 0.06 0.01 0.00 0.00 0.00 0.00 0.00 0.00 0.00
0.01 0.02 0.03 0.03 0.04 0.05 0.07 0.07 0.08 0.10 0.13 0.18 0.26 0.29 0.31 0.30 0.31 0.34 0.36 0.35 0.31 0.28 0.25 0.26 0.26 0.23 0.22 0.21 0.22 0.20 0.15 0.11 0.10 0.08 0.07 0.04 0.02 0.01 0.00 0.00 0.01 0.02 0.03
0.01 0.03 0.04 0.05 0.06 0.07 0.09 0.09 0.08 0.10 0.15 0.21 0.30 0.35 0.37 0.39 0.44 0.47 0.45 0.40 0.35 0.32 0.29 0.27 0.24 0.23 0.21 0.17 0.14 0.12 0.10 0.08 0.07 0.06 0.05 0.06 0.07 0.06 0.03 0.01 0.03 0.04 0.04
0.01 0.01 0.02 0.03 0.05 0.06 0.07 0.09 0.08 0.10 0.14 0.18 0.24 0.33 0.35 0.39 0.43 0.44 0.42 0.38 0.36 0.33 0.31 0.27 0.23 0.18 0.14 0.10 0.08 0.07 0.06 0.05 0.04 0.04 0.04 0.04 0.07 0.09 0.08 0.03 0.04 0.05 0.05
0.00 0.00 0.00 0.01 0.01 0.02 0.04 0.05 0.06 0.06 0.08 0.10 0.11 0.14 0.17 0.24 0.27 0.29 0.30 0.30 0.29 0.29 0.28 0.25 0.20 0.16 0.11 0.07 0.05 0.04 0.04 0.03 0.02 0.03 0.03 0.03 0.05 0.07 0.10 0.07 0.06 0.05 0.05
0.00 0.00 0.00 0.00 0.01 0.01 0.02 0.03 0.03 0.04 0.05 0.06 0.07 0.09 0.13 0.19 0.23 0.24 0.25 0.25 0.24 0.25 0.25 0.22 0.16 0.12 0.07 0.05 0.03 0.03 0.03 0.02 0.02 0.02 0.02 0.02 0.04 0.06 0.08 0.08 0.06 0.05 0.05
0.00 0.00 0.00 0.00 0.00 0.01 0.01 0.02 0.03 0.04 0.05 0.06 0.07 0.08 0.12 0.19 0.20 0.22 0.23 0.22 0.20 0.19 0.16 0.13 0.11 0.09 0.06 0.03 0.02 0.02 0.02 0.01 0.01 0.01 0.02 0.03 0.04 0.05 0.06 0.07 0.07 0.04 0.03
0.00 0.00 0.00 0.00 0.00 0.01 0.01 0.02 0.03 0.05 0.06 0.09 0.10 0.11 0.14 0.18 0.20 0.21 0.23 0.22 0.20 0.17 0.15 0.13 0.11 0.08 0.05 0.02 0.01 0.01 0.01 0.01 0.01 0.01 0.02 0.02 0.03 0.04 0.05 0.07 0.08 0.06 0.04
0.00 0.00 0.00 0.00 0.00 0.01 0.02 0.04 0.06 0.07 0.10 0.12 0.15 0.15 0.16 0.16 0.17 0.18 0.19 0.18 0.15 0.12 0.11 0.10 0.08 0.05 0.03 0.01 0.01 0.01 0.01 0.01 0.01 0.02 0.02 0.02 0.02 0.03 0.03 0.04 0.06 0.08 0.08
0.00 0.00 0.00 0.00 0.00 0.01 0.03 0.05 0.08 0.11 0.15 0.17 0.21 0.23 0.21 0.18 0.18 0.17 0.17 0.16 0.13 0.10 0.07 0.06 0.05 0.03 0.02 0.01 0.01 0.01 0.01 0.01 0.01 0.01 0.01 0.01 0.01 0.02 0.01 0.01 0.02 0.04 0.05
0.00 0.00 0.00 0.01 0.01 0.02 0.04 0.07 0.10 0.16 0.21 0.22 0.25 0.29 0.26 0.20 0.17 0.14 0.12 0.10 0.09 0.07 0.05 0.04 0.03 0.02 0.01 0.01 0.01 0.01 0.01 0.01 0.01 0.01 0.01 0.01 0.01 0.01 0.00 0.01 0.01 0.01 0.01
0.00 0.00 0.01 0.02 0.03 0.05 0.08 0.12 0.16 0.22 0.27 0.29 0.30 0.28 0.29 0.25 0.19 0.13 0.10 0.08 0.07 0.05 0.03 0.02 0.01 0.01 0.01 0.01 0.01 0.01 0.01 0.01 0.00 0.00 0.00 0.01 0.01 0.01 0.01 0.00 0.00 0.00 0.00
0.00 0.00 0.01 0.02 0.05 0.07 0.10 0.14 0.22 0.31 0.30 0.29 0.28 0.26 0.23 0.21 0.19 0.16 0.13 0.10 0.07 0.04 0.02 0.01 0.01 0.01 0.01 0.01 0.01 0.01 0.00 0.00 0.00 0.00 0.00 0.00 0.00 0.00 0.00 0.00 0.00 0.00 0.00
0.00 0.00 0.00 0.02 0.03 0.05 0.08 0.12 0.14 0.22 0.27 0.26 0.24 0.21 0.20 0.17 0.15 0.11 0.08 0.07 0.04 0.03 0.02 0.01 0.00 0.00 0.00 0.00 0.00 0.00 0.00 0.00 0.00 0.00 0.00 0.00 0.00 0.00 0.00 0.00 0.00 0.00 0.00
0.00 0.00 0.00 0.00 0.01 0.02 0.04 0.06 0.07 0.12 0.16 0.16 0.16 0.16 0.14 0.13 0.14 0.10 0.06 0.04 0.03 0.02 0.02 0.01 0.01 0.00 0.00 0.00 0.00 0.00 0.00 0.00 0.00 0.00 0.00 0.00 0.00 0.00 0.00 0.00 0.00 0.00 0.00
0.00 0.00 0.00 0.00 0.00 0.01 0.01 0.02 0.04 0.05 0.08 0.11 0.12 0.12 0.11 0.09 0.09 0.07 0.06 0.04 0.02 0.01 0.01 0.01 0.00 0.00 0.00 0.00 0.00 0.00 0.00 0.00 0.00 0.00 0.00 0.00 0.00 0.00 0.00 0.00 0.00 0.00 0.00
0.00 0.00 0.00 0.00 0.00 0.00 0.01 0.02 0.02 0.03 0.06 0.08 0.10 0.10 0.08 0.06 0.05 0.05 0.06 0.04 0.02 0.01 0.01 0.00 0.00 0.00 0.00 0.00 0.00 0.00 0.00 0.00 0.00 0.00 0.00 0.00 0.00 0.00 0.00 0.00 0.00 0.00 0.00
0.00 0.00 0.00 0.00 0.00 0.00 0.00 0.01 0.02 0.03 0.04 0.06 0.09 0.08 0.06 0.05 0.04 0.04 0.04 0.04 0.04 0.02 0.01 0.00 0.00 0.00 0.00 0.00 0.00 0.00 0.00 0.00 0.00 0.00 0.00 0.00 0.00 0.00 0.00 0.00 0.00 0.00 0.00
0.00 0.00 0.00 0.00 0.00 0.00 0.00 0.01 0.01 0.02 0.03 0.05 0.06 0.05 0.04 0.05 0.04 0.04 0.03 0.03 0.03 0.02 0.01 0.00 0.00 0.00 0.00 0.00 0.00 0.00 0.00 0.00 0.00 0.00 0.00 0.00 0.00 0.00 0.00 0.00 0.00 0.00 0.00
0.00 0.00 0.00 0.00 0.00 0.00 0.00 0.00 0.01 0.02 0.03 0.04 0.04 0.04 0.05 0.05 0.05 0.04 0.03 0.03 0.02 0.02 0.01 0.00 0.00 0.00 0.00 0.00 0.00 0.00 0.00 0.00 0.00 0.00 0.00 0.00 0.00 0.00 0.00 0.00 0.00 0.00 0.00
0.00 0.00 0.00 0.00 0.00 0.00 0.00 0.00 0.00 0.01 0.02 0.03 0.04 0.05 0.05 0.03 0.02 0.03 0.03 0.03 0.02 0.01 0.01 0.01 0.00 0.00 0.00 0.00 0.00 0.00 0.00 0.00 0.00 0.00 0.00 0.00 0.00 0.00 0.00 0.00 0.00 0.00 0.00
0.00 0.00 0.00 0.00 0.00 0.00 0.00 0.00 0.00 0.01 0.02 0.03 0.05 0.05 0.04 0.02 0.02 0.03 0.03 0.02 0.02 0.01 0.01 0.01 0.01 0.00 0.00 0.00 0.00 0.00 0.00 0.00 0.00 0.00 0.00 0.00 0.00 0.00 0.00 0.00 0.00 0.00 0.00
0.00 0.00 0.00 0.00 0.00 0.00 0.00 0.00 0.00 0.01 0.02 0.03 0.04 0.04 0.04 0.03 0.02 0.03 0.04 0.03 0.02 0.02 0.01 0.01 0.01 0.00 0.00 0.00 0.00 0.00 0.00 0.00 0.00 0.00 0.00 0.00 0.00 0.00 0.00 0.00 0.00 0.00 0.00
0.00 0.00 0.00 0.00 0.00 0.00 0.00 0.00 0.00 0.01 0.02 0.03 0.03 0.03 0.03 0.03 0.02 0.02 0.03 0.03 0.03 0.02 0.01 0.01 0.01 0.00 0.00 0.00 0.00 0.00 0.00 0.00 0.00 0.00 0.00 0.00 0.00 0.00 0.00 0.00 0.00 0.00 0.00
0.00 0.00 0.00 0.00 0.00 0.00 0.00 0.00 0.00 0.00 0.02 0.03 0.03 0.03 0.02 0.02 0.01 0.01 0.00 0.00 0.01 0.00 0.00 0.00 0.00 0.00 0.00 0.00 0.00 0.00 0.00 0.00 0.00 0.00 0.00 0.00 0.00 0.00 0.00 0.00 0.00 0.00 0.00
MSLP
1009.55 1009.40 1009.33 1009.34 1009.45 1009.67 1009.98 1010.36 1010.78 1011.19 1011.56 1011.86 1012.08 1012.24 1012.34 1012.42 1012.51 1012.63 1012.79 1012.97 1013.15 1013.30 1013.39 1013.40 1013.34 1013.23 1013.09 1012.96 1012.87 1012.83 1012.83 1012.84 1012.83 1012.76 1012.61 1012.36 1012.02 1011.62 1011.20 1010.82 1010.52 1010.33 1010.25
1010.06 1009.88 1009.75 1009.68 1009.69 1009.81 1010.01 1010.30 1010.64 1011.00 1011.33 1011.62 1011.84 1011.99 1012.10 1012.19 1012.28 1012.41 1012.56 1012.73 1012.90 1013.04 1013.11 1013.10 1013.01 1012.86 1012.69 1012.52 1012.40 1012.34 1012.34 1012.38 1012.41 1012.41 1012.32 1012.14 1011.87 1011.51 1011.12 1010.74 1010.41 1010.18 1010.04
1010.59 1010.41 1010.24 1010.10 1010.02 1010.02 1010.10 1010.27 1010.50 1010.77 1011.04 1011.28 1011.47 1011.61 1011.71 1011.80 1011.90 1012.02 1012.18 1012.36 1012.53 1012.66 1012.73 1012.70 1012.60 1012.42 1012.22 1012.03 1011.88 1011.81 1011.81 1011.87 1011.96 1012.03 1012.03 1011.94 1011.76 1011.48 1011.14 1010.79 1010.46 1010.19 1010.00
1011.06 1010.90 1010.72 1010.53 1010.36 1010.24 1010.20 1010.23 1010.33 1010.48 1010.65 1010.82 1010.96 1011.07 1011.16 1011.25 1011.35 1011.49 1011.66 1011.85 1012.04 1012.18 1012.26 1012.25 1012.14 1011.96 1011.75 1011.54 1011.38 1011.30 1011.31 1011.41 1011.54 1011.68 1011.78 1011.80 1011.71 1011.53 1011.26 1010.95 1010.63 1010.34 1010.10
1011.41 1011.28 1011.10 1010.88 1010.64 1010.43 1010.26 1010.15 1010.12 1010.14 1010.20 1010.28 1010.36 1010.43 1010.50 1010.58 1010.70 1010.85 1011.04 1011.26 1011.47 1011.65 1011.75 1011.77 1011.68 1011.52 1011.32 1011.12 1010.96 1010.89 1010.91 1011.04 1011.22 1011.43 1011.61 1011.72 1011.73 1011.64 1011.45 1011.18 1010.88 1010.58 1010.30
1011.61 1011.53 1011.36 1011.13 1010.85 1010.55 1010.28 1010.05 1009.90 1009.80 1009.75 1009.74 1009.76 1009.78 1009.83 1009.90 1010.02 1010.19 1010.40 1010.65 1010.89 1011.11 1011.26 1011.31 1011.27 1011.15 1010.98 1010.80 1010.67 1010.61 1010.65 1010.79 1011.01 1011.27 1011.51 1011.70 1011.80 1011.78 1011.65 1011.43 1011.15 1010.84 1010.52
1011.66 1011.62 1011.49 1011.26 1010.96 1010.63 1010.29 1009.98 1009.73 1009.53 1009.40 1009.31 1009.26 1009.24 1009.26 1009.33 1009.45 1009.62 1009.85 1010.11 1010.39 1010.64 1010.83 1010.94 1010.95 1010.88 1010.75 1010.61 1010.50 1010.47 1010.53 1010.68 1010.92 1011.20 1011.48 1011.72 1011.86 1011.90 1011.82 1011.63 1011.36 1011.04 1010.70
1011.57 1011.57 1011.48 1011.29 1011.01 1010.68 1010.32 1009.97 1009.66 1009.41 1009.22 1009.08 1008.98 1008.93 1008.93 1008.97 1009.08 1009.25 1009.48 1009.75 1010.03 1010.30 1010.53 1010.67 1010.73 1010.71 1010.64 1010.54 1010.47 1010.46 1010.53 1010.69 1010.93 1011.21 1011.50 1011.74 1011.91 1011.97 1011.91 1011.74 1011.48 1011.15 1010.79
1011.37 1011.41 1011.38 1011.25 1011.02 1010.73 1010.40 1010.06 1009.75 1009.49 1009.27 1009.11 1008.99 1008.92 1008.89 1008.92 1009.00 1009.15 1009.36 1009.61 1009.88 1010.14 1010.38 1010.55 1010.64 1010.67 1010.64 1010.59 1010.55 1010.56 1010.64 1010.79 1011.01 1011.27 1011.53 1011.76 1011.91 1011.97 1011.91 1011.74 1011.48 1011.15 1010.78
1011.08 1011.17 1011.20 1011.15 1011.00 1010.79 1010.53 1010.25 1009.99 1009.75 1009.56 1009.40 1009.29 1009.21 1009.17 1009.18 1009.23 1009.35 1009.51 1009.72 1009.95 1010.19 1010.40 1010.57 1010.68 1010.73 1010.74 1010.73 1010.72 1010.75 1010.83 1010.97 1011.16 1011.38 1011.60 1011.79 1011.90 1011.93 1011.86 1011.68 1011.42 1011.09 1010.72
1010.75 1010.88 1010.98 1011.01 1010.96 1010.85 1010.68 1010.50 1010.32 1010.15 1010.01 1009.89 1009.81 1009.74 1009.71 1009.70 1009.73 1009.80 1009.91 1010.06 1010.24 1010.42 1010.59 1010.74 1010.84 1010.91 1010.94 1010.96 1010.98 1011.03 1011.11 1011.23 1011.39 1011.57 1011.73 1011.86 1011.93 1011.92 1011.82 1011.63 1011.36 1011.04 1010.68
1010.39 1010.57 1010.72 1010.83 1010.88 1010.87 1010.81 1010.74 1010.65 1010.57 1010.51 1010.46 1010.42 1010.39 1010.37 1010.36 1010.37 1010.41 1010.47 1010.56 1010.67 1010.80 1010.92 1011.03 1011.12 1011.18 1011.23 1011.27 1011.31 1011.38 1011.46 1011.58 1011.71 1011.84 1011.95 1012.03 1012.04 1011.99 1011.86 1011.66 1011.39 1011.08 1010.73
1010.04 1010.24 1010.44 1010.61 1010.73 1010.82 1010.86 1010.88 1010.90 1010.91 1010.93 1010.94 1010.96 1010.98 1011.00 1011.01 1011.02 1011.04 1011.07 1011.12 1011.18 1011.25 1011.33 1011.40 1011.47 1011.53 1011.58 1011.64 1011.71 1011.79 1011.89 1012.00 1012.11 1012.21 1012.29 1012.32 1012.29 1012.20 1012.05 1011.83 1011.56 1011.25 1010.91
1009.72 1009.92 1010.14 1010.34 1010.52 1010.66 1010.78 1010.88 1010.97 1011.07 1011.16 1011.24 1011.33 1011.40 1011.46 1011.51 1011.55 1011.58 1011.61 1011.64 1011.67 1011.71 1011.76 1011.81 1011.86 1011.92 1011.98 1012.06 1012.15 1012.26 1012.37 1012.49 1012.60 1012.68 1012.73 1012.73 1012.68 1012.56 1012.38 1012.15 1011.88 1011.58 1011.25
1009.41 1009.61 1009.83 1010.04 1010.23 1010.41 1010.57 1010.72 1010.86 1011.00 1011.15 1011.29 1011.43 1011.57 1011.69 1011.79 1011.87 1011.94 1012.00 1012.04 1012.08 1012.12 1012.16 1012.20 1012.25 1012.32 1012.40 1012.50 1012.61 1012.74 1012.88 1013.01 1013.13 1013.21 1013.25 1013.23 1013.16 1013.02 1012.83 1012.60 1012.32 1012.02 1011.70
1009.13 1009.31 1009.51 1009.71 1009.90 1010.08 1010.25 1010.41 1010.57 1010.74 1010.92 1011.10 1011.28 1011.47 1011.64 1011.81 1011.95 1012.08 1012.19 1012.28 1012.35 1012.42 1012.48 1012.54 1012.61 1012.69 1012.79 1012.91 1013.05 1013.21 1013.36 1013.51 1013.64 1013.73 1013.76 1013.74 1013.66 1013.52 1013.32 1013.08 1012.81 1012.51 1012.18
1008.84 1009.01 1009.19 1009.37 1009.54 1009.71 1009.87 1010.02 1010.18 1010.35 1010.54 1010.73 1010.94 1011.16 1011.39 1011.61 1011.82 1012.01 1012.19 1012.34 1012.48 1012.59 1012.70 1012.79 1012.89 1013.00 1013.13 1013.27 1013.43 1013.61 1013.78 1013.94 1014.08 1014.17 1014.21 1014.19 1014.11 1013.96 1013.77 1013.52 1013.25 1012.95 1012.62
1008.52 1008.68 1008.85 1009.02 1009.19 1009.34 1009.49 1009.63 1009.78 1009.93 1010.11 1010.30 1010.52 1010.76 1011.01 1011.27 1011.53 1011.79 1012.04 1012.26 1012.46 1012.64 1012.80 1012.95 1013.09 1013.23 1013.39 1013.55 1013.73 1013.92 1014.10 1014.26 1014.40 1014.49 1014.53 1014.51 1014.42 1014.28 1014.09 1013.85 1013.57 1013.27 1012.95
1008.13 1008.30 1008.49 1008.67 1008.84 1009.00 1009.15 1009.29 1009.43 1009.58 1009.74 1009.92 1010.12 1010.36 1010.62 1010.90 1011.20 1011.50 1011.79 1012.08 1012.35 1012.59 1012.81 1013.02 1013.21 1013.39 1013.57 1013.76 1013.95 1014.13 1014.31 1014.47 1014.59 1014.67 1014.70 1014.67 1014.59 1014.44 1014.25 1014.02 1013.75 1013.46 1013.15
1007.65 1007.85 1008.06 1008.28 1008.49 1008.68 1008.86 1009.02 1009.17 1009.32 1009.47 1009.64 1009.83 1010.04 1010.29 1010.57 1010.88 1011.20 1011.53 1011.86 1012.17 1012.47 1012.76 1013.02 1013.26 1013.48 1013.70 1013.90 1014.10 1014.28 1014.44 1014.58 1014.68 1014.74 1014.75 1014.70 1014.61 1014.47 1014.28 1014.06 1013.81 1013.54 1013.24
1007.06 1007.29 1007.55 1007.82 1008.09 1008.35 1008.58 1008.79 1008.98 1009.15 1009.31 1009.47 1009.65 1009.85 1010.07 1010.33 1010.62 1010.94 1011.28 1011.63 1011.98 1012.32 1012.66 1012.97 1013.27 1013.54 1013.79 1014.01 1014.21 1014.39 1014.53 1014.64 1014.71 1014.73 1014.71 1014.65 1014.55 1014.41 1014.23 1014.03 1013.80 1013.55 1013.28
1006.37 1006.63 1006.94 1007.27 1007.61 1007.94 1008.25 1008.53 1008.78 1009.00 1009.20 1009.38 1009.55 1009.73 1009.93 1010.16 1010.42 1010.72 1011.05 1011.41 1011.78 1012.16 1012.54 1012.91 1013.26 1013.58 1013.87 1014.12 1014.33 1014.50 1014.62 1014.70 1014.73 1014.72 1014.67 1014.58 1014.47 1014.33 1014.17 1013.99 1013.80 1013.58 1013.35
1005.62 1005.89 1006.23 1006.61 1007.01 1007.41 1007.81 1008.17 1008.51 1008.80 1009.05 1009.27 1009.46 1009.64 1009.82 1010.03 1010.26 1010.53 1010.84 1011.19 1011.58 1011.99 1012.41 1012.83 1013.24 1013.61 1013.95 1014.23 1014.46 1014.63 1014.73 1014.78 1014.78 1014.73 1014.65 1014.54 1014.41 1014.28 1014.14 1013.99 1013.84 1013.67 1013.48
1004.87 1005.12 1005.44 1005.83 1006.26 1006.73 1007.19 1007.65 1008.07 1008.44 1008.77 1009.04 1009.28 1009.48 1009.67 1009.86 1010.08 1010.33 1010.62 1010.97 1011.37 1011.80 1012.27 1012.74 1013.21 1013.64 1014.03 1014.35 1014.60 1014.77 1014.87 1014.89 1014.86 1014.77 1014.66 1014.53 1014.40 1014.28 1014.16 1014.05 1013.95 1013.83 1013.70
1004.20 1004.36 1004.62 1004.98 1005.40 1005.89 1006.40 1006.92 1007.42 1007.89 1008.29 1008.65 1008.94 1009.19 1009.40 1009.61 1009.82 1010.07 1010.36 1010.71 1011.12 1011.59 1012.10 1012.62 1013.14 1013.63 1014.07 1014.43 1014.71 1014.89 1014.98 1014.99 1014.92 1014.82 1014.68 1014.54 1014.41 1014.30 1014.21 1014.15 1014.10 1014.04 1013.96
1003.64 1003.68 1003.83 1004.10 1004.48 1004.94 1005.46 1006.01 1006.57 1007.11 1007.60 1008.04 1008.41 1008.72 1008.98 1009.22 1009.46 1009.72 1010.02 1010.39 1010.83 1011.32 1011.87 1012.44 1013.01 1013.55 1014.03 1014.43 1014.73 1014.92 1015.00 1015.00 1014.91 1014.79 1014.64 1014.49 1014.37 1014.28 1014.23 1014.22 1014.22 1014.23 1014.22
Thickness
5801 5803 5802 5801 5800 5797 5793 5791 5788 5786 5782 5778 5774 5770 5768 5768 5768 5767 5764 5762 5759 5756 5754 5753 5751 5749 5747 5746 5746 5745 5743 5742 5744 5743 5747 5755 5760 5761 5759 5759 5758 5758 5757
5786 5787 5788 5788 5787 5786 5784 5783 5781 5780 5778 5775 5771 5768 5765 5763 5763 5761 5759 5756 5753 5750 5748 5746 5744 5743 5741 5739 5740 5739 5737 5738 5740 5736 5736 5741 5750 5754 5757 5754 5752 5751 5751
5769 5772 5772 5773 5775 5774 5773 5773 5772 5772 5771 5768 5765 5762 5760 5757 5754 5753 5752 5750 5747 5744 5741 5738 5737 5737 5735 5733 5733 5734 5731 5731 5734 5735 5731 5730 5735 5740 5747 5747 5745 5742 5741
5759 5759 5760 5761 5762 5763 5764 5763 5762 5762 5761 5760 5757 5754 5750 5748 5748 5747 5747 5743 5741 5737 5733 5730 5728 5728 5728 5727 5728 5731 5730 5728 5727 5729 5729 5729 5728 5722 5728 5737 5737 5734 5732
5750 5748 5750 5751 5752 5754 5754 5754 5753 5752 5751 5749 5748 5746 5744 5744 5744 5742 5739 5736 5733 5729 5726 5723 5722 5721 5721 5722 5724 5724 5724 5725 5724 5724 5724 5723 5720 5718 5713 5718 5723 5725 5727
5741 5740 5741 5742 5742 5744 5744 5744 5743 5741 5741 5739 5739 5737 5736 5734 5733 5733 5730 5727 5723 5722 5720 5718 5716 5715 5716 5717 5718 5718 5718 5719 5719 5718 5718 5715 5713 5712 5708 5708 5712 5713 5718
5733 5732 5732 5731 5732 5732 5732 5732 5730 5729 5729 5729 5727 5727 5726 5724 5723 5724 5721 5718 5715 5713 5711 5711 5709 5709 5710 5711 5712 5712 5713 5712 5711 5710 5711 5711 5709 5707 5704 5702 5704 5706 5711
5727 5725 5725 5724 5723 5722 5721 5720 5717 5716 5716 5715 5714 5714 5714 5713 5713 5713 5712 5709 5707 5706 5704 5703 5702 5703 5703 5704 5704 5706 5705 5704 5703 5704 5702 5701 5702 5700 5698 5696 5696 5697 5703
5720 5719 5718 5717 5715 5712 5709 5707 5705 5703 5701 5699 5698 5698 5698 5698 5698 5698 5697 5697 5696 5696 5695 5694 5693 5693 5693 5694 5695 5697 5695 5696 5696 5696 5694 5693 5693 5692 5691 5691 5689 5687 5689
5715 5713 5711 5708 5705 5702 5699 5696 5692 5689 5686 5684 5681 5681 5680 5680 5681 5681 5679 5680 5680 5682 5684 5684 5683 5682 5683 5684 5685 5686 5687 5686 5686 5685 5684 5683 5685 5683 5683 5683 5683 5681 5679
5709 5707 5704 5700 5696 5692 5688 5683 5679 5674 5670 5666 5664 5662 5662 5662 5662 5662 5663 5663 5665 5667 5669 5671 5672 5671 5672 5674 5676 5679 5677 5676 5676 5675 5674 5672 5672 5674 5675 5675 5675 5675 5674
5703 5700 5697 5692 5687 5682 5677 5672 5666 5660 5655 5651 5648 5646 5644 5644 5644 5645 5646 5647 5649 5652 5654 5657 5658 5660 5662 5664 5666 5667 5667 5666 5665 5664 5663 5662 5663 5661 5663 5663 5664 5665 5664
5696 5693 5688 5683 5678 5673 5667 5661 5655 5650 5645 5640 5636 5633 5631 5629 5628 5630 5631 5632 5635 5637 5639 5642 5645 5648 5651 5654 5655 5656 5655 5655 5654 5653 5652 5651 5651 5650 5651 5651 5654 5656 5659
5690 5685 5680 5675 5670 5665 5659 5654 5648 5642 5636 5631 5627 5624 5622 5619 5619 5619 5619 5619 5622 5624 5626 5629 5632 5636 5640 5643 5644 5644 5643 5642 5642 5641 5640 5639 5638 5637 5638 5640 5641 5644 5646
5684 5679 5674 5670 5664 5659 5653 5648 5642 5636 5631 5626 5621 5617 5615 5613 5611 5611 5610 5610 5612 5615 5617 5620 5623 5627 5630 5633 5633 5633 5632 5631 5630 5629 5628 5625 5623 5621 5623 5627 5628 5631 5634
5679 5675 5670 5665 5660 5654 5650 5644 5638 5633 5628 5623 5619 5615 5611 5608 5606 5605 5604 5603 5604 5606 5608 5612 5615 5618 5620 5616 5619 5622 5621 5621 5620 5618 5618 5617 5615 5613 5612 5611 5611 5612 5616
5674 5670 5666 5661 5656 5651 5647 5640 5635 5631 5625 5621 5617 5613 5609 5605 5604 5602 5601 5599 5599 5599 5601 5604 5606 5606 5604 5604 5607 5610 5612 5611 5609 5608 5608 5611 5607 5607 5608 5606 5603 5602 5600
5669 5666 5661 5657 5653 5648 5643 5638 5634 5629 5624 5620 5616 5612 5608 5605 5602 5600 5598 5596 5596 5595 5596 5598 5599 5598 5595 5594 5597 5599 5603 5602 5600 5600 5599 5599 5597 5595 5594 5599 5598 5598 5595
5665 5661 5658 5654 5649 5644 5640 5635 5631 5627 5623 5619 5615 5611 5608 5604 5601 5598 5595 5594 5592 5591 5592 5593 5593 5592 5588 5587 5589 5592 5595 5594 5594 5593 5590 5590 5589 5582 5582 5588 5587 5586 5585
5660 5656 5653 5649 5644 5640 5636 5631 5628 5625 5621 5618 5615 5611 5607 5603 5600 5597 5594 5592 5590 5588 5589 5587 5588 5587 5585 5580 5582 5584 5593 5590 5590 5586 5584 5576 5576 5573 5572 5577 5576 5573 5572
5655 5651 5648 5643 5640 5636 5631 5627 5625 5623 5621 5618 5613 5608 5605 5602 5599 5595 5592 5590 5588 5586 5585 5582 5582 5582 5579 5575 5576 5579 5586 5587 5586 5586 5584 5575 5567 5565 5564 5564 5563 5559 5558
5650 5647 5642 5639 5636 5633 5628 5624 5622 5622 5619 5615 5610 5607 5603 5601 5598 5593 5590 5588 5585 5582 5580 5579 5578 5577 5575 5573 5571 5571 5573 5574 5578 5578 5577 5568 5560 5558 5556 5556 5552 5551 5551
5647 5644 5639 5635 5633 5630 5626 5622 5622 5620 5616 5612 5609 5605 5602 5600 5597 5593 5589 5586 5584 5585 5583 5579 5578 5577 5574 5568 5565 5565 5566 5566 5570 5569 5561 5558 5555 5552 5552 5547 5546 5547 5549
5644 5640 5637 5633 5630 5628 5625 5622 5621 5618 5614 5610 5607 5604 5601 5598 5596 5593 5591 5589 5587 5586 5583 5581 5578 5576 5573 5572 5569 5568 5565 5561 5564 5564 5557 5552 5551 5549 5546 5545 5545 5544 5539
5641 5637 5634 5631 5629 5626 5623 5621 5619 5615 5612 5609 5607 5604 5601 5598 5595 5593 5591 5589 5588 5586 5583 5582 5580 5576 5573 5568 5564 5568 5567 5566 5563 5560 5560 5559 5556 5553 5549 5545 5540 5537 5533
5637 5634 5632 5630 5627 5624 5621 5619 5617 5613 5610 5607 5605 5603 5601 5598 5595 5592 5588 5578 5579 5576 5574 5573 5575 5573 5568 5560 5557 5554 5553 5552 5550 5553 5558 5555 5552 5549 5545 5541 5536 5531 5526